Find Tian Lian 1-02

NORAD ID: 37737 Int'l Des: 2011-032 Owner: CAST Country: CN operational
HEOCIRCULAR

Live Position

Loading 3D Globe...

About Tian Lian 1-02

Description loading...

Upcoming Passes

Passes for default location (London). Set your location on the main map for personalized predictions.

Altitude History

Loading altitude history...

Two-Line Element Set

1 37737U 11032A 26105.84255494 -.00000053 00000-0 00000+0 0 9997
2 37737 5.3947 67.9649 0007800 262.1751 198.1042 0.98997444 43485
Epoch: Apr 15, 2026 • Age: 8 hours

Current Status

Altitude 36121.4 km
Velocity 3.06 km/s
Sub-Earth Point -3.80°S, 19.13°E
Launch Date Jul 11, 2011
Age 14.7 years
Type other

Technical Details

Classification Payload
Mass 2500.00 kg
Dry Mass 1060.00 kg
Total Mass 2500.00 kg
Length 6.00 m
Diameter 1.70 m
Span 18.10 m
Shape Box + 2 Pan + Dish
Manufacturer CAST
Bus Type DFH-3
Phase Status In Orbit
Owner/State CAST/CN

Most Searched